User: anonymous   Login
Location: Franzen
(48.6167°N, 15.3833°E)
Time: 01:16:47
(UTC+00:00)
Language:

Cosmos 1812 Rocket - Orbit

View from above orbital plane
View from above orbital plane
View from above satellite
View from above satellite

Ground track
Ground track

The orbit data is extracted from the following two-line orbital elements,

1 17296U 87003B   21174.76552075  .00000080  00000-0  67832-5 0  9994
2 17296  82.5303  92.2487 0020480  64.4881 295.8449 14.83337613860661
Epoch (UTC): 23 June 2021 18:22:20
Eccentricity: 0.0020480
inclination: 82.5303°
perigee height: 604 km
apogee height: 633 km
right ascension of ascending node: 92.2487°
argument of perigee: 64.4881°
revolutions per day: 14.83337613
mean anomaly at epoch: 295.8449°
orbit number at epoch: 86066

The dashed part of the orbit path shows where the satellite is in the earth's shadow,  

DLR